Time,TemperatureF,DewpointF,PressureIn,WindDirection,WindDirectionDegrees,WindSpeedMPH,WindSpeedGustMPH,Humidity,HourlyPrecipIn,Conditions,Clouds,dailyrainin,SoftwareType,DateUTC
2013-05-25 00:00:00,45.0,42.8,29.99,NNE,22,3.0,3.0,92,0.05,,,0.01,Wunderground v.1.15,2013-05-25 04:00:00,
2013-05-25 00:10:00,45.0,42.8,29.99,NNE,14,2.0,2.0,92,0.05,,,0.01,Wunderground v.1.15,2013-05-25 04:10:00,
2013-05-25 00:20:00,44.9,42.7,30.00,NNE,28,1.0,4.0,92,0.00,,,0.01,Wunderground v.1.15,2013-05-25 04:20:00,
2013-05-25 00:30:00,44.9,42.7,30.00,North,355,2.0,5.0,92,0.00,,,0.01,Wunderground v.1.15,2013-05-25 04:30:00,
2013-05-25 00:40:00,44.8,42.9,30.00,North,9,1.0,3.0,93,0.00,,,0.01,Wunderground v.1.15,2013-05-25 04:40:00,
2013-05-25 00:50:00,44.7,43.1,30.00,NNW,344,3.0,3.0,94,0.00,,,0.01,Wunderground v.1.15,2013-05-25 04:50:00,
2013-05-25 01:00:00,44.6,43.0,30.00,NNW,342,3.0,3.0,94,0.06,,,0.02,Wunderground v.1.15,2013-05-25 05:00:00,
2013-05-25 01:10:00,44.5,42.9,29.99,NNW,342,1.0,3.0,94,0.06,,,0.03,Wunderground v.1.15,2013-05-25 05:10:00,
2013-05-25 01:20:00,44.5,43.2,29.99,NNW,348,2.0,3.0,95,0.00,,,0.03,Wunderground v.1.15,2013-05-25 05:20:00,
2013-05-25 01:30:00,44.5,43.2,29.99,NNW,348,1.0,1.0,95,0.00,,,0.03,Wunderground v.1.15,2013-05-25 05:30:00,
2013-05-25 01:40:00,44.4,43.1,29.98,North,360,0.0,3.0,95,0.00,,,0.03,Wunderground v.1.15,2013-05-25 05:40:00,
2013-05-25 01:50:00,44.3,43.0,29.98,North,10,2.0,3.0,95,0.00,,,0.03,Wunderground v.1.15,2013-05-25 05:50:00,
2013-05-25 02:00:00,44.3,43.0,29.98,North,11,1.0,1.0,95,0.00,,,0.03,Wunderground v.1.15,2013-05-25 06:00:00,
2013-05-25 02:10:00,44.4,43.1,29.98,North,9,1.0,1.0,95,0.00,,,0.03,Wunderground v.1.15,2013-05-25 06:10:00,
2013-05-25 02:20:00,44.4,43.1,29.99,North,355,2.0,2.0,95,0.00,,,0.03,Wunderground v.1.15,2013-05-25 06:20:00,
2013-05-25 02:30:00,44.5,43.2,29.99,North,355,1.0,2.0,95,0.00,,,0.03,Wunderground v.1.15,2013-05-25 06:30:00,
2013-05-25 02:40:00,44.5,43.2,29.99,NNW,340,1.0,1.0,95,0.00,,,0.03,Wunderground v.1.15,2013-05-25 06:40:00,
2013-05-25 02:50:00,44.5,43.2,29.99,NNW,341,0.0,0.0,95,0.00,,,0.04,Wunderground v.1.15,2013-05-25 06:50:00,
2013-05-25 03:00:00,44.5,43.2,30.00,NNW,341,0.0,0.0,95,0.00,,,0.04,Wunderground v.1.15,2013-05-25 07:00:00,
2013-05-25 03:10:00,44.4,43.3,29.99,NNW,341,0.0,0.0,96,0.00,,,0.04,Wunderground v.1.15,2013-05-25 07:10:00,
2013-05-25 03:20:00,44.4,43.3,30.00,NNW,341,0.0,0.0,96,0.00,,,0.04,Wunderground v.1.15,2013-05-25 07:20:00,
2013-05-25 03:30:00,44.4,43.3,30.00,North,355,1.0,4.0,96,0.00,,,0.05,Wunderground v.1.15,2013-05-25 07:30:00,
2013-05-25 03:40:00,44.5,43.4,30.00,North,355,3.0,3.0,96,0.07,,,0.06,Wunderground v.1.15,2013-05-25 07:40:00,
2013-05-25 03:50:00,44.4,43.3,29.99,North,355,3.0,5.0,96,0.07,,,0.07,Wunderground v.1.15,2013-05-25 07:50:00,
2013-05-25 04:00:00,44.3,43.2,29.99,North,351,4.0,4.0,96,0.06,,,0.08,Wunderground v.1.15,2013-05-25 08:00:00,
2013-05-25 04:10:00,44.2,43.1,29.99,North,360,4.0,4.0,96,0.06,,,0.09,Wunderground v.1.15,2013-05-25 08:10:00,
2013-05-25 04:20:00,44.1,42.8,29.99,North,349,5.0,5.0,95,0.06,,,0.10,Wunderground v.1.15,2013-05-25 08:20:00,
2013-05-25 04:30:00,44.2,42.9,30.00,NNE,19,5.0,6.0,95,0.05,,,0.11,Wunderground v.1.15,2013-05-25 08:30:00,
2013-05-25 04:40:00,44.3,43.0,29.99,North,360,6.0,6.0,95,0.00,,,0.11,Wunderground v.1.15,2013-05-25 08:40:00,
2013-05-25 04:50:00,44.1,41.9,30.01,NNW,341,8.0,10.0,92,0.00,,,0.11,Wunderground v.1.15,2013-05-25 08:50:00,
2013-05-25 05:00:00,44.1,41.9,30.02,North,9,8.0,9.0,92,0.00,,,0.11,Wunderground v.1.15,2013-05-25 09:00:00,
2013-05-25 05:10:00,44.0,41.8,30.03,NNW,327,7.0,7.0,92,0.00,,,0.11,Wunderground v.1.15,2013-05-25 09:10:00,
2013-05-25 05:20:00,43.8,41.3,30.05,North,355,7.0,7.0,91,0.00,,,0.11,Wunderground v.1.15,2013-05-25 09:20:00,
2013-05-25 05:30:00,43.4,41.2,30.05,NNW,345,9.0,12.0,92,0.09,,,0.13,Wunderground v.1.15,2013-05-25 09:30:00,
2013-05-25 05:40:00,43.1,40.9,30.06,North,360,9.0,9.0,92,0.10,,,0.14,Wunderground v.1.15,2013-05-25 09:40:00,
2013-05-25 05:50:00,42.6,40.7,30.06,NNW,329,8.0,15.0,93,0.06,,,0.15,Wunderground v.1.15,2013-05-25 09:50:00,
2013-05-25 06:00:00,42.2,40.3,30.06,North,360,10.0,10.0,93,0.04,,,0.16,Wunderground v.1.15,2013-05-25 10:00:00,
2013-05-25 06:10:00,41.9,40.3,30.06,North,360,11.0,11.0,94,0.04,,,0.16,Wunderground v.1.15,2013-05-25 10:10:00,
2013-05-25 06:20:00,41.6,40.0,30.07,North,5,10.0,10.0,94,0.00,,,0.17,Wunderground v.1.15,2013-05-25 10:20:00,
2013-05-25 06:30:00,41.4,39.8,30.07,North,360,9.0,9.0,94,0.00,,,0.17,Wunderground v.1.15,2013-05-25 10:30:00,
2013-05-25 06:40:00,41.3,39.7,30.06,North,5,8.0,8.0,94,0.00,,,0.17,Wunderground v.1.15,2013-05-25 10:40:00,
2013-05-25 06:50:00,41.3,39.7,30.07,NNE,14,9.0,14.0,94,0.00,,,0.17,Wunderground v.1.15,2013-05-25 10:50:00,
2013-05-25 07:00:00,41.3,39.4,30.07,North,10,8.0,8.0,93,0.00,,,0.17,Wunderground v.1.15,2013-05-25 11:00:00,
2013-05-25 07:10:00,41.5,39.6,30.08,North,355,7.0,7.0,93,0.00,,,0.17,Wunderground v.1.15,2013-05-25 11:10:00,
2013-05-25 07:30:00,41.4,39.5,30.07,North,11,9.0,9.0,93,0.00,,,0.17,Wunderground v.1.15,2013-05-25 11:30:00,
2013-05-25 07:40:00,41.5,39.6,30.07,NNE,17,7.0,11.0,93,0.00,,,0.17,Wunderground v.1.15,2013-05-25 11:40:00,
2013-05-25 07:50:00,41.7,39.5,30.08,NE,51,8.0,8.0,92,0.00,,,0.17,Wunderground v.1.15,2013-05-25 11:50:00,
2013-05-25 08:00:00,41.8,39.6,30.07,NNE,28,8.0,9.0,92,0.00,,,0.17,Wunderground v.1.15,2013-05-25 12:00:00,
2013-05-25 08:10:00,42.0,39.6,30.08,NE,36,7.0,7.0,91,0.00,,,0.17,Wunderground v.1.15,2013-05-25 12:10:00,
2013-05-25 08:20:00,42.1,39.7,30.07,NE,35,6.0,6.0,91,0.00,,,0.17,Wunderground v.1.15,2013-05-25 12:20:00,
2013-05-25 08:30:00,42.2,39.8,30.07,North,360,8.0,10.0,91,0.00,,,0.17,Wunderground v.1.15,2013-05-25 12:30:00,
2013-05-25 08:40:00,42.2,39.8,30.08,NE,44,7.0,7.0,91,0.00,,,0.17,Wunderground v.1.15,2013-05-25 12:40:00,
2013-05-25 08:50:00,42.3,39.9,30.07,NE,44,5.0,5.0,91,0.00,,,0.17,Wunderground v.1.15,2013-05-25 12:50:00,
2013-05-25 09:00:00,42.5,39.8,30.07,NE,38,6.0,6.0,90,0.00,,,0.17,Wunderground v.1.15,2013-05-25 13:00:00,
2013-05-25 09:10:00,42.6,40.4,30.07,North,355,4.0,4.0,92,0.00,,,0.17,Wunderground v.1.15,2013-05-25 13:10:00,
2013-05-25 09:20:00,42.9,40.5,30.07,NE,37,5.0,5.0,91,0.00,,,0.17,Wunderground v.1.15,2013-05-25 13:20:00,
2013-05-25 09:30:00,43.1,40.7,30.06,NNE,15,6.0,6.0,91,0.00,,,0.17,Wunderground v.1.15,2013-05-25 13:30:00,
2013-05-25 09:40:00,43.2,40.5,30.06,NNE,28,4.0,4.0,90,0.00,,,0.17,Wunderground v.1.15,2013-05-25 13:40:00,
2013-05-25 09:50:00,43.4,40.9,30.06,NNE,22,4.0,10.0,91,0.00,,,0.17,Wunderground v.1.15,2013-05-25 13:50:00,
2013-05-25 10:00:00,43.6,40.6,30.06,ENE,67,6.0,6.0,89,0.00,,,0.17,Wunderground v.1.15,2013-05-25 14:00:00,
2013-05-25 10:10:00,43.7,41.0,30.06,NE,52,4.0,4.0,90,0.00,,,0.17,Wunderground v.1.15,2013-05-25 14:10:00,
2013-05-25 10:20:00,43.7,40.7,30.06,NNE,15,5.0,5.0,89,0.00,,,0.17,Wunderground v.1.15,2013-05-25 14:20:00,
2013-05-25 10:30:00,43.8,40.8,30.06,ENE,72,5.0,5.0,89,0.00,,,0.17,Wunderground v.1.15,2013-05-25 14:30:00,
2013-05-25 10:40:00,43.7,40.1,30.05,ENE,63,5.0,5.0,87,0.00,,,0.17,Wunderground v.1.15,2013-05-25 14:40:00,
2013-05-25 10:50:00,43.8,40.2,30.05,NE,34,6.0,6.0,87,0.00,,,0.17,Wunderground v.1.15,2013-05-25 14:50:00,
2013-05-25 11:00:00,43.9,40.9,30.05,NE,49,5.0,5.0,89,0.00,,,0.18,Wunderground v.1.15,2013-05-25 15:00:00,
2013-05-25 11:10:00,43.9,41.4,30.06,NE,34,4.0,4.0,91,0.08,,,0.19,Wunderground v.1.15,2013-05-25 15:10:00,
2013-05-25 11:20:00,43.9,41.2,30.05,NNE,20,4.0,8.0,90,0.05,,,0.19,Wunderground v.1.15,2013-05-25 15:20:00,
2013-05-25 11:30:00,44.0,41.3,30.05,North,355,7.0,7.0,90,0.00,,,0.19,Wunderground v.1.15,2013-05-25 15:30:00,
2013-05-25 11:40:00,43.9,41.4,30.05,NNE,28,6.0,6.0,91,0.00,,,0.19,Wunderground v.1.15,2013-05-25 15:40:00,
2013-05-25 11:50:00,44.0,41.5,30.05,NNE,14,5.0,6.0,91,0.00,,,0.20,Wunderground v.1.15,2013-05-25 15:50:00,
2013-05-25 12:00:00,43.9,41.4,30.05,NNE,28,7.0,7.0,91,0.00,,,0.20,Wunderground v.1.15,2013-05-25 16:00:00,
2013-05-25 12:10:00,44.1,41.9,30.05,ENE,62,6.0,7.0,92,0.04,,,0.21,Wunderground v.1.15,2013-05-25 16:10:00,
2013-05-25 12:20:00,43.8,41.3,30.05,NE,36,5.0,5.0,91,0.04,,,0.21,Wunderground v.1.15,2013-05-25 16:20:00,
2013-05-25 12:30:00,43.6,41.4,30.06,NNE,18,3.0,5.0,92,0.00,,,0.21,Wunderground v.1.15,2013-05-25 16:30:00,
2013-05-25 12:40:00,43.6,41.4,30.05,NNE,33,6.0,6.0,92,0.00,,,0.22,Wunderground v.1.15,2013-05-25 16:40:00,
2013-05-25 12:50:00,43.6,41.4,30.05,NNE,18,7.0,7.0,92,0.00,,,0.22,Wunderground v.1.15,2013-05-25 16:50:00,
2013-05-25 13:00:00,43.7,41.5,30.04,NNE,19,8.0,8.0,92,0.04,,,0.23,Wunderground v.1.15,2013-05-25 17:00:00,
2013-05-25 13:10:00,43.6,41.7,30.05,NNE,18,6.0,6.0,93,0.04,,,0.23,Wunderground v.1.15,2013-05-25 17:10:00,
2013-05-25 13:20:00,43.5,41.6,30.05,North,11,6.0,7.0,93,0.08,,,0.25,Wunderground v.1.15,2013-05-25 17:20:00,
2013-05-25 13:30:00,43.6,41.7,30.05,NNE,30,5.0,5.0,93,0.08,,,0.26,Wunderground v.1.15,2013-05-25 17:30:00,
2013-05-25 13:40:00,43.8,42.2,30.04,NNW,342,6.0,6.0,94,0.06,,,0.27,Wunderground v.1.15,2013-05-25 17:40:00,
2013-05-25 13:50:00,43.8,42.2,30.04,NNW,335,6.0,9.0,94,0.05,,,0.28,Wunderground v.1.15,2013-05-25 17:50:00,
2013-05-25 14:00:00,43.7,41.8,30.04,NE,51,8.0,8.0,93,0.04,,,0.28,Wunderground v.1.15,2013-05-25 18:00:00,
2013-05-25 14:10:00,43.9,42.3,30.04,North,355,8.0,8.0,94,0.00,,,0.28,Wunderground v.1.15,2013-05-25 18:10:00,
2013-05-25 14:20:00,43.8,41.9,30.04,NNE,33,8.0,8.0,93,0.00,,,0.28,Wunderground v.1.15,2013-05-25 18:20:00,
2013-05-25 14:30:00,43.8,41.9,30.04,NNE,21,7.0,13.0,93,0.00,,,0.29,Wunderground v.1.15,2013-05-25 18:30:00,
2013-05-25 14:40:00,43.7,41.8,30.04,NNE,15,8.0,9.0,93,0.04,,,0.30,Wunderground v.1.15,2013-05-25 18:40:00,
2013-05-25 14:50:00,43.3,41.4,30.03,North,355,7.0,9.0,93,0.13,,,0.31,Wunderground v.1.15,2013-05-25 18:50:00,
2013-05-25 15:00:00,43.3,41.4,30.03,NE,36,8.0,8.0,93,0.11,,,0.33,Wunderground v.1.15,2013-05-25 19:00:00,
2013-05-25 15:10:00,43.3,41.7,30.04,North,360,6.0,11.0,94,0.06,,,0.34,Wunderground v.1.15,2013-05-25 19:10:00,
2013-05-25 15:20:00,43.2,41.3,30.04,NE,40,8.0,8.0,93,0.07,,,0.35,Wunderground v.1.15,2013-05-25 19:20:00,
2013-05-25 15:30:00,43.2,41.6,30.03,NNE,19,7.0,7.0,94,0.11,,,0.37,Wunderground v.1.15,2013-05-25 19:30:00,
2013-05-25 15:40:00,43.2,41.6,30.03,North,360,9.0,13.0,94,0.04,,,0.37,Wunderground v.1.15,2013-05-25 19:40:00,
2013-05-25 15:50:00,43.3,41.7,30.02,NNE,30,8.0,8.0,94,0.04,,,0.38,Wunderground v.1.15,2013-05-25 19:50:00,
2013-05-25 16:00:00,43.0,41.4,30.02,NE,42,7.0,7.0,94,0.04,,,0.39,Wunderground v.1.15,2013-05-25 20:00:00,
2013-05-25 16:10:00,42.9,41.3,30.02,North,360,8.0,12.0,94,0.05,,,0.40,Wunderground v.1.15,2013-05-25 20:10:00,
2013-05-25 16:20:00,42.5,40.6,30.02,North,355,9.0,9.0,93,0.08,,,0.41,Wunderground v.1.15,2013-05-25 20:20:00,
2013-05-25 16:30:00,42.2,40.3,30.02,NNE,24,9.0,9.0,93,0.09,,,0.43,Wunderground v.1.15,2013-05-25 20:30:00,
2013-05-25 16:40:00,42.2,40.6,30.01,NNE,13,11.0,11.0,94,0.07,,,0.45,Wunderground v.1.15,2013-05-25 20:40:00,
2013-05-25 16:50:00,42.2,40.6,30.02,NNE,28,8.0,8.0,94,0.10,,,0.46,Wunderground v.1.15,2013-05-25 20:50:00,
2013-05-25 17:00:00,42.2,40.6,30.01,NE,40,7.0,7.0,94,0.07,,,0.47,Wunderground v.1.15,2013-05-25 21:00:00,
2013-05-25 17:10:00,41.9,40.0,30.00,North,10,11.0,14.0,93,0.11,,,0.49,Wunderground v.1.15,2013-05-25 21:10:00,
2013-05-25 17:20:00,41.6,40.0,30.00,NE,44,8.0,8.0,94,0.25,,,0.53,Wunderground v.1.15,2013-05-25 21:20:00,
2013-05-25 17:30:00,41.8,40.2,30.00,North,360,9.0,9.0,94,0.21,,,0.57,Wunderground v.1.15,2013-05-25 21:30:00,
2013-05-25 17:40:00,41.8,40.5,30.00,NNE,19,7.0,7.0,95,0.29,,,0.60,Wunderground v.1.15,2013-05-25 21:40:00,
2013-05-25 17:50:00,41.9,40.6,29.99,NNE,13,6.0,10.0,95,0.25,,,0.64,Wunderground v.1.15,2013-05-25 21:50:00,
2013-05-25 18:00:00,41.8,40.5,29.99,NNE,12,9.0,9.0,95,0.20,,,0.68,Wunderground v.1.15,2013-05-25 22:00:00,
2013-05-25 18:10:00,41.7,40.4,30.00,NE,48,8.0,8.0,95,0.31,,,0.72,Wunderground v.1.15,2013-05-25 22:10:00,
2013-05-25 18:20:00,41.7,40.4,30.00,NNE,28,8.0,8.0,95,0.21,,,0.75,Wunderground v.1.15,2013-05-25 22:20:00,
2013-05-25 18:30:00,41.6,40.3,30.01,NNE,24,8.0,8.0,95,0.12,,,0.77,Wunderground v.1.15,2013-05-25 22:30:00,
2013-05-25 18:40:00,41.5,40.2,30.00,ENE,65,5.0,5.0,95,0.09,,,0.78,Wunderground v.1.15,2013-05-25 22:40:00,
2013-05-25 18:50:00,41.3,40.0,30.00,NE,46,6.0,6.0,95,0.07,,,0.80,Wunderground v.1.15,2013-05-25 22:50:00,
2013-05-25 19:00:00,41.3,40.0,30.00,NNE,15,6.0,6.0,95,0.11,,,0.82,Wunderground v.1.15,2013-05-25 23:00:00,
2013-05-25 19:10:00,41.3,40.0,30.00,NNE,25,6.0,6.0,95,0.08,,,0.83,Wunderground v.1.15,2013-05-25 23:10:00,
2013-05-25 19:20:00,41.1,39.8,29.99,NNE,32,5.0,8.0,95,0.07,,,0.85,Wunderground v.1.15,2013-05-25 23:20:00,
2013-05-25 19:30:00,40.9,39.6,29.99,North,350,8.0,10.0,95,0.10,,,0.86,Wunderground v.1.15,2013-05-25 23:30:00,
2013-05-25 19:40:00,40.8,39.5,29.99,NNE,16,8.0,8.0,95,0.07,,,0.87,Wunderground v.1.15,2013-05-25 23:40:00,
2013-05-25 19:50:00,40.6,39.3,29.99,North,350,8.0,9.0,95,0.06,,,0.88,Wunderground v.1.15,2013-05-25 23:50:00,
2013-05-25 20:00:00,40.4,39.1,29.99,North,5,9.0,11.0,95,0.06,,,0.89,Wunderground v.1.15,2013-05-26 00:00:00,
2013-05-25 20:10:00,40.2,38.9,29.99,North,360,7.0,7.0,95,0.08,,,0.91,Wunderground v.1.15,2013-05-26 00:10:00,
2013-05-25 20:20:00,40.0,38.7,29.99,NNE,32,8.0,8.0,95,0.09,,,0.92,Wunderground v.1.15,2013-05-26 00:20:00,
2013-05-25 20:30:00,39.9,38.6,29.99,North,360,7.0,7.0,95,0.07,,,0.93,Wunderground v.1.15,2013-05-26 00:30:00,
2013-05-25 20:40:00,39.9,38.6,29.99,NNE,13,8.0,8.0,95,0.04,,,0.94,Wunderground v.1.15,2013-05-26 00:40:00,
2013-05-25 20:50:00,39.9,38.9,29.99,North,360,5.0,9.0,96,0.08,,,0.94,Wunderground v.1.15,2013-05-26 00:50:00,
2013-05-25 21:00:00,39.9,38.9,29.98,North,10,5.0,5.0,96,0.06,,,0.95,Wunderground v.1.15,2013-05-26 01:00:00,
2013-05-25 21:10:00,39.9,38.9,29.98,NNE,19,5.0,5.0,96,0.06,,,0.96,Wunderground v.1.15,2013-05-26 01:10:00,
2013-05-25 21:20:00,39.9,38.6,29.98,NNE,22,6.0,6.0,95,0.05,,,0.97,Wunderground v.1.15,2013-05-26 01:20:00,
2013-05-25 21:30:00,40.0,39.0,29.97,NE,44,5.0,5.0,96,0.08,,,0.98,Wunderground v.1.15,2013-05-26 01:30:00,
2013-05-25 21:40:00,40.1,39.1,29.96,NNE,26,7.0,7.0,96,0.04,,,0.98,Wunderground v.1.15,2013-05-26 01:40:00,
2013-05-25 21:50:00,40.2,39.2,29.95,NNE,20,8.0,8.0,96,0.04,,,0.99,Wunderground v.1.15,2013-05-26 01:50:00,
2013-05-25 22:00:00,40.2,38.9,29.95,North,360,5.0,6.0,95,0.04,,,1.00,Wunderground v.1.15,2013-05-26 02:00:00,
2013-05-25 22:10:00,40.3,39.0,29.96,NNE,17,6.0,6.0,95,0.06,,,1.01,Wunderground v.1.15,2013-05-26 02:10:00,
2013-05-25 22:20:00,40.4,39.1,29.96,NNE,21,6.0,6.0,95,0.05,,,1.01,Wunderground v.1.15,2013-05-26 02:20:00,
2013-05-25 22:30:00,40.4,39.1,29.94,NE,35,6.0,6.0,95,0.00,,,1.01,Wunderground v.1.15,2013-05-26 02:30:00,
2013-05-25 22:40:00,40.4,39.1,29.94,North,360,6.0,6.0,95,0.00,,,1.02,Wunderground v.1.15,2013-05-26 02:40:00,
2013-05-25 22:50:00,40.5,39.2,29.93,North,355,7.0,8.0,95,0.00,,,1.02,Wunderground v.1.15,2013-05-26 02:50:00,
2013-05-25 23:00:00,40.6,39.3,29.92,North,351,5.0,5.0,95,0.00,,,1.02,Wunderground v.1.15,2013-05-26 03:00:00,
2013-05-25 23:10:00,40.6,39.5,29.92,NNE,25,6.0,6.0,96,0.00,,,1.03,Wunderground v.1.15,2013-05-26 03:10:00,
2013-05-25 23:20:00,40.7,39.6,29.91,NE,38,6.0,6.0,96,0.00,,,1.03,Wunderground v.1.15,2013-05-26 03:20:00,
2013-05-25 23:30:00,40.8,39.7,29.90,North,360,6.0,6.0,96,0.00,,,1.04,Wunderground v.1.15,2013-05-26 03:30:00,
2013-05-25 23:40:00,40.9,39.8,29.90,NE,51,5.0,5.0,96,0.00,,,1.04,Wunderground v.1.15,2013-05-26 03:40:00,
2013-05-25 23:50:00,41.1,39.8,29.90,ENE,60,5.0,5.0,95,0.00,,,1.04,Wunderground v.1.15,2013-05-26 03:50:00,